Regional Weather Roundup
Issued by NWS Upton, NY

Home | Current Version | Previous Version | Text Only | Print | Product List | Glossary On
Versions: 1 2 3 4 5 6 7 8 9 10 11 12 13 14 15 16 17 18 19 20 21 22 23 24 25 26 27 28 29 30 31 32 33 34 35 36 37 38 39 40 41 42 43 44 45 46 47 48 49 50
000
ASUS41 KOKX 261805
RWROKX

REGIONAL WEATHER ROUNDUP
NATIONAL WEATHER SERVICE NEW YORK NY
200 PM EDT SAT JUL 26 2014

NOTE: "FAIR" INDICATES FEW OR NO CLOUDS BELOW 12,000 FEET WITH NO
SIGNIFICANT WEATHER AND/OR OBSTRUCTIONS TO VISIBILITY.

NYZ071-072-176-178-NJZ106-104-261900-
NEW YORK CITY METRO AREA


CITY           SKY/WX    TMP DP  RH WIND       PRES   REMARKS
CENTRAL PARK   PTSUNNY   80  61  52 CALM      29.98F
LAGUARDIA APRT PTSUNNY   80  61  52 SW9       29.94F
KENNEDY INTL   CLOUDY    78  63  59 SW5       29.97F
NEWARK/LIBERTY PTSUNNY   81  62  52 S8        29.95F
BRNX BOT. GARD   N/A     79  61  53 W2        29.97S
TETERBORO      PTSUNNY   83  58  42 SW8       29.94F
$$

NYZ177-179-078>081-261900-
LONG ISLAND NEW YORK

CITY           SKY/WX    TMP DP  RH WIND       PRES   REMARKS
FARMINGDALE    CLOUDY    74  64  71 S13       29.97S
ISLIP          LGT RAIN  78  65  63 SW9       29.96S
SHIRLEY        LGT RAIN  74  65  73 S8        29.98F
WESTHAMPTON    CLOUDY    74  62  66 SW10      29.99F
MONTAUK POINT    N/A     77  62  59 SW9G17    29.99S
$$

NYZ052-065-067-261900-
HUDSON VALLEY

CITY           SKY/WX    TMP DP  RH WIND       PRES   REMARKS
WHITE PLAINS   PTSUNNY   75  61  61 SW8       29.96F
NEWBURGH       NOT AVBL
MONTGOMERY     PTSUNNY   74  62  66 SW8       29.96F
POUGHKEEPSIE   CLOUDY    76  60  57 SW6       29.94F
ALBANY         PTSUNNY   80  58  46 SW7       29.92F
$$

NJZ001-105-106-008-010-013-015-019>022-104-261900-
NEW JERSEY

CITY           SKY/WX    TMP DP  RH WIND       PRES   REMARKS
NEWARK/LIBERTY PTSUNNY   81  62  52 S8        29.95F
TETERBORO      PTSUNNY   83  58  42 SW8       29.94F
CALDWELL       CLOUDY    78  61  55 VRB5      29.95F
MORRISTOWN     CLOUDY    79  63  57 W9        29.96F
SOMERVILLE     PTSUNNY   79  66  64 VRB5      29.94F
LINDEN         FAIR      81  60  48 S8        29.96F
SUSSEX         PTSUNNY   76  62  62 SW3       29.96F
ANDOVER          N/A     76  62  62 SW5       29.97F
TRENTON        PTSUNNY   77  66  68 SW8       29.95F
MILLVILLE      CLOUDY    75  69  81 VRB3      29.97F
ATLANTIC CITY  CLOUDY    76  66  71 S8        29.97F
WRIGHTSTOWN    LGT RAIN  74  70  85 SW6       29.95S
TOMS RIVER     CLOUDY    79  66  65 S6        29.98S
BELMAR         CLOUDY    77  64  65 S6        29.97F
$$

PAZ047>061-062-071-261900-
EASTERN PENNSYLVANIA

CITY           SKY/WX    TMP DP  RH WIND       PRES   REMARKS
PHILADELPHIA   PTSUNNY   75  68  78 S5        29.97S
ALLENTOWN      SUNNY     82  57  42 NW8       29.95F
SCRANTON       PTSUNNY   75  54  47 W8        29.98F
$$

CTZ002-004>006-009-010-012-RIZ004-006-007-MAZ004-011-015-261900-
SOUTHERN NEW ENGLAND
 IN CT

CITY           SKY/WX    TMP DP  RH WIND       PRES   REMARKS
BRADLEY INTL   LGT RAIN  80  58  46 SW13      29.92F
HARTFORD       LGT RAIN  78  56  46 W7        29.93F
DANBURY        LGT RAIN  72  60  66 SW5       29.98F
WTRBRY/OXFORD  CLOUDY    73  61  64 W7        30.00S
BRIDGEPORT     LGT RAIN  76  63  64 SW7       29.96S
MERIDEN        CLOUDY    76  59  55 SW7       29.95F
NEW HAVEN      CLOUDY    77  60  55 CALM      29.96F
CHESTER        FAIR      73  59  60 SW7       29.98S
GROTON         CLOUDY    74  60  61 S7        29.96S
WILLIMANTIC    CLOUDY    80  57  45 SW13      29.94F

 IN RI

CITY           SKY/WX    TMP DP  RH WIND       PRES   REMARKS
PROVIDENCE     PTSUNNY   82  58  43 S17       29.95F
BLOCK ISLAND   CLOUDY    75  64  69 SW16G25   29.98F
WESTERLY       CLOUDY    77  62  59 S13G20    29.97F

 IN MA

CITY           SKY/WX    TMP DP  RH WIND       PRES   REMARKS
BOSTON         PTSUNNY   83  55  38 SW13G24   29.90F
WORCESTER      MOSUNNY   77  55  46 SW12      29.95F
WESTFIELD      CLOUDY    80  56  43 SW9       29.92F
PROVINCETOWN   MOSUNNY   75  66  73 CALM      29.94F
NANTUCKET      CLOUDY    69  65  86 S8        29.99F
$$

ANZ330-335-338-340-345-350-353-355-261900-
COASTAL MARINE OBSERVATIONS


STATION/POSITION TIME  SKY/WX   TEMP    WIND        PRES    VSBY  WAVE
                                AIR SEA DIR/SP/G                  HT/PER
                 (UTC)          (F)     (DEG/KT/KT) (MB)    (MI)  (FT/S)
NY HARB ENTRANCE NOT AVBL
4S FIRE IS       NOT AVBL
23SW MTP         1800            73 72              1014.9          2/ 9
HUDSON CANYON    1800            74 74  210/  8/  8 1015.6          2/ 8
EXECUTION ROCKS  1800            77 72  260/  6/  8   N/A
WESTERN LI SOUND 1800            75     220/  6/  6   N/A           1
CENTRAL LI SOUND 1700            72 71  290/  2/  4   N/A           1/ 3
EASTERN LI SOUND 1700            72 69  200/  2/  4   N/A
ROBBINS REEF     1800            75     150/  9/ 11   N/A
$$


>>>>>>>>>>>>>>>>>>>>>>>>>>>> KEY <<<<<<<<<<<<<<<<<<<<<<<<<<<
>                                                          <
>     SKY/WX - SKY CONDITION/PRESENT WEATHER               <
>     TMP    - TEMPERATURE IN FAHRENHEIT                   <
>     DP     - DEWPOINT IN FAHRENHEIT                      <
>     RH     - RELATIVE HUMIDITY IN PERCENT                <
>     WIND   - DIRECTION AND SPEED IN MPH                  <
>     PRES   - MEAN SEA LEVEL PRESSURE IN INCHES OF HG     <
>     WCI    - WIND CHILL INDEX                            <
>     VSB    - VISIBILITY IN MILES                         <
>     HX     - HEAT INDEX                                  <
>     TC     - TEMPERATURE IN CELSIUS                      <
>     VRB    - VARIABLE WIND DIRECTION                     <
>                                                          <
>>>>>>>>>>>>>>>>>>>>>>>>>>>> KEY <<<<<<<<<<<<<<<<<<<<<<<<<<<





USA.gov is the U.S. government's official web portal to all federal, state and local government web resources and services.